Regional Weather Roundup
Issued by NWS

Home | Current Version | Previous Version | Graphics & Text | Print | Product List | Glossary On
Versions: 1 2 3 4 5 6 7 8 9 10 11 12 13 14 15 16 17 18 19 20 21 22 23 24 25 26 27 28 29 30 31 32 33 34 35 36 37 38 39 40 41 42 43 44 45 46 47 48 49 50
000
ASUS43 KOAX 020402
RWRNE

WEATHER ROUNDUP FOR NEBRASKA
NATIONAL WEATHER SERVICE OMAHA NE
1100 PM CDT SUN MAY 01 2016

NOTES: SATELLITE DATA IS BEING USED TO AUGMENT CLOUD COVER ABOVE
       12000 FEET.
       "FAIR" INDICATES FEW OR NO CLOUDS BELOW 12,000 FEET WITH NO
       SIGNIFICANT WEATHER AND/OR OBSTRUCTIONS TO VISIBILITY.

  * THESE STATIONS DO NOT REPORT WEATHER SUCH AS RAIN...SNOW OR FOG.

NEZ001>004-019>022-054>056-020500-
NEBRASKA PANHANDLE

CITY           SKY/WX    TMP DP  RH WIND       PRES   REMARKS
SCOTTSBLUFF    CLEAR     41  32  70 CALM      30.27R
ALLIANCE       PTCLDY    33  30  88 CALM      30.25R
CHADRON        CLEAR     37  32  82 W3        30.25R
KIMBALL        CLEAR     32  28  85 W10       30.28S WCI  24
SIDNEY         MOCLDY    31  27  85 W6        30.27S WCI  25
$$

NEZ057>060-069>072-079>082-020500-
SOUTHWEST NEBRASKA

CITY           SKY/WX    TMP DP  RH WIND       PRES   REMARKS
NORTH PLATTE   CLEAR     37  33  85 NW9       30.24R WCI  30
IMPERIAL       CLEAR     41  31  67 NW6       30.25S
LEXINGTON      CLEAR     41  38  89 W5        30.22R
MCCOOK         PTCLDY    41  36  82 SW6       30.22R
$$

NEZ005>010-023>029-035>040-094-020500-
NORTH CENTRAL NEBRASKA

CITY           SKY/WX    TMP DP  RH WIND       PRES   REMARKS
VALENTINE      CLEAR     41  32  70 CALM      30.24R
AINSWORTH      CLEAR     41  34  76 W3        30.24R
BROKEN BOW     CLEAR     37  34  89 N6        30.22R WCI  32
ORD            CLEAR     38  35  89 NW7       30.20S WCI  33
$$

NEZ041-046>049-061>064-073>077-083>087-020500-
SOUTH CENTRAL NEBRASKA

CITY           SKY/WX    TMP DP  RH WIND       PRES   REMARKS
GRAND ISLAND   CLOUDY    47  41  80 NW6       30.20R
AURORA         CLOUDY    46  44  92 NW3       30.19R
HASTINGS       CLOUDY    46  41  82 CALM      30.20R
KEARNEY *      CLEAR     41  37  87 NW6       30.21S
YORK           CLOUDY    46  45  93 N6        30.19R
$$

NEZ011>018-030>034-042>045-020500-
NORTHEAST NEBRASKA

CITY           SKY/WX    TMP DP  RH WIND       PRES   REMARKS
NORFOLK        MOCLDY    41  39  93 W5        30.19S
ALBION         CLOUDY    46  41  81 N3        30.20S
BLAIR          CLOUDY    48  45  88 NW7       30.14F
COLUMBUS *     CLOUDY    46  37  71 NW6       30.19S
FREMONT        CLOUDY    49  43  80 NW7       30.16F
TEKAMAH        CLOUDY    49  44  83 NW8       30.16S
$$

NEZ050>053-065>068-078-088>093-020500-
SOUTHEAST NEBRASKA

CITY           SKY/WX    TMP DP  RH WIND       PRES   REMARKS
LINCOLN        CLOUDY    50  43  77 NW3       30.18R
OMAHA EPPLEY   MOCLDY    48  46  93 N6        30.14F
FALLS CITY     CLOUDY    49  43  80 N7        30.15R
$$

NEZ044-045-051>053-067-020500-
OMAHA AREA

CITY           SKY/WX    TMP DP  RH WIND       PRES   REMARKS
OMAHA EPPLEY   MOCLDY    48  46  93 N6        30.14F
BLAIR          CLOUDY    48  45  88 NW7       30.14F
FREMONT        CLOUDY    49  43  80 NW7       30.16F
OFFUTT AFB     PTCLDY    46  44  91 NW5       30.13F
$$



USA.gov is the U.S. government's official web portal to all federal, state and local government web resources and services.